Погода Демьянское

Погода Демьянское : погода сейчас, прогноз погоды и архив. Всё, что Вы хотите узнать о погоде Демьянское!

Поиск расширенной информации на нашем сайте:

Другие новости

Новости СМИ2

Главная страница сайта

Новости сайта

02.10.2013

Напоминаем, что на нашем новом сайте вы можете получить высокодетализированные прогнозы погоды по пунктам России, СНГ и мира (включающие важные для авиации метеовеличины, такие как направление и скорость ветра, видимость, явления погоды, количество и форма облачности, нижняя и верхняя граница облачности), а также ознакомиться с разнообразными материалами по авиационной метеорологии и подборкой полезных ссылок на эту тему.

Сайт Метеоцентр.Азия посвящён разработке технологий оптимизации авиаметеорологического обслуживания, включая проектирование и перспективное создание нескольких автоматизированных авиаметеорологических систем:
- система выпуска высокодетальных прогностических карт явлений погоды для нижнего воздушного пространства по России и ближнему зарубежью;
- система верификации прогнозов TAF (выпускаемых синоптиками официальных АМСГ РФ и ближнего зарубежья) и AUTOTAF (выпускаемых сайтом Метеоцентр.Азия) - выявление ошибок, онлайн-сопоставление с фактической погодой METAR, автоматическое внесение коррективов в прогнозы при резком отклонении фактической погоды от прогноза, подсчёт оправдываемости прогнозов по элементам и в целом;
- система обработки, анализа и отображения авиаметеорологической информации для применения провайдерами метеорологической информации.


Погода Демьянское - сегодня

Время (UTC), дата Ветер
(°,м/с) 
Видим.   Явления Облачность Т
(°С)
Тd
(°С)
f(%) Тe
(°С)
Pmin
(гПа)
dP
(гПа)
Po
(мм)
O2
(г/м3)
Тmin Tmax R s Состояние
почвы
06 21.06.17 тихо ()   10 км    8/4 1000 м верхняя 
[Sc|Ci fib]
+21.1 +14.9 68 +30  995.8  0.2  742  274           
09 21.06.17 тихо ()   10 км  гроза без осадков  8/8 600 м кучево-дожд., верхняя 
[Cb cap|Ci fib]
+22.2 +15.9 67 +33  995.5  -0.3  742  273           
12 21.06.17 220 (ЮЗ) 10 км  {гроза, ливн. осадки}  8/1 600 м кучево-дожд., верхняя 
[Cb calv|Ci sp]
+23.1 +15.3 61 +33  995.3  -0.2  742  272           
15 21.06.17 тихо ()   10 км    8/4 1000 м средняя, верхняя 
[Sc|Ac trans|Ci fib]
+21.5 +14.9 66 +30  995.7  0.4  742  274    +24.8  0.5     
18 21.06.17 тихо ()   10 км    8/1 600 м средняя, верхняя 
[St|Ac lent|Cs]
+15.9 +15.2 96 +25  996.8  743  280           
21 21.06.17 280 (З) 10 км    9/3 1000 м верхняя 
[Sc|Cs]
+14.5 +14.3 99 +24  997.8  0.9  743  281           
00 22.06.17 тихо ()   10 км    9/0 верхняя 
[Ci]
+13.5 +13.5 100 +20  998.5  0.7  744  283           
03 22.06.17 220 (ЮЗ) 10 км    8/0 средняя, верхняя 
[Ac trans|Ci sp]
+19.9 +14.9 73 +30  999.7  1.3  745  277  +12.6         
06 22.06.17 280 (З) 10 км    3/0 верхняя 
[Ci fib]
+23.8 +14.8 57 +32  1000.6  746  273           
09 22.06.17 250 (З) 10 км    3/3 600 м 
[Cu hum]
+26.6 +11.9 40 +30  1001.1  0.5  746  272           
12 22.06.17 280 (З) 10 км    5/4 600 м верхняя 
[Cu med, cong|Ci fib]
+27.1 +12.6 41 +32  1001.6  0.5  746  271           
15 22.06.17 тихо ()   10 км    3/0 верхняя 
[Ci fib]
+24.2 +13.7 52 +31  1002.5  0.8  747  274    +27.6       
18 22.06.17 тихо ()   10 км    3/1 1000 м верхняя 
[Sc diur, vesp|Ci fib]
+17 +13.5 80 +23  1003.8  1.2  748  281           
21 22.06.17 тихо ()   10 км    1/0 верхняя 
[Ci fib]
+15.1 +14.6 97 +23  1004.6  0.8  748  283           
00 23.06.17 тихо ()   10 км    3/0 верхняя 
[Ci fib]
+15.7 +14.1 90 +23  1005.3  0.6  749  282           
03 23.06.17 тихо ()   10 км    1/0 верхняя 
[Ci fib]
+23.7 +15.4 60 +33  1005.4  0.3  749  275  +14.1         
06 23.06.17 200 (Ю) 10 км    4/1 600 м верхняя 
[Cu hum|Ci fib]
+26.5 +14 46 +34  1004.7  -0.6  749  272           
09 23.06.17 210 (ЮЗ) 10 км    10/5 600 м верхняя 
[Cu hum|Ci]
+27 +14.4 46 +35  1004.2  -0.4  748  272           
12 23.06.17 тихо ()   10 км    10/1 600 м верхняя 
[Cu hum|Cs]
+25.5 +15.8 55 +36  1003.8  -0.5  748  272           
15 23.06.17 тихо ()   10 км    9/0 верхняя 
[Cs]
+22.8 +15.9 65 +33  1003.6  -0.2  748  275    +28.3       
18 23.06.17 тихо ()   10 км    10/0 верхняя 
[Cs]
+18.2 +15.3 83 +27  1003.7  -0.1  748  279           
21 23.06.17 тихо ()   10 км    10/0 верхняя 
[Cs]
+16.1 +15.5 96 +26  1003.6  0.1  748  281           
00 24.06.17 010 (С) 10 км    10/0 верхняя 
[Cs]
+17.2 +15.5 90 +29  1003.4  -0.2  748  280           
03 24.06.17 030 (СВ) 10 км    9/8 1000 м верхняя 
[Sc|Ci fib]
+19.2 +15.9 81 +31  1002.9  -0.4  747  278  +15.8         
06 24.06.17 190 (Ю) 2000 м  гроза, ливневой дождь  10/9 600 м кучево-дожд., средняя 
[Cb cap|Ac und]
+18.5 +18.3 99 +35  1003.1  -0.2  747  278           
Время (UTC), дата Ветер
(°,м/с) 
Видим.   Явления Облачность Т
(°С)
Тd
(°С)
f(%) Тe
(°С)
Pmin
(гПа)
dP
(гПа)
Po
(мм)
O2
(г/м3)
Тmin Tmax R s Состояние
почвы

Для получения пояснительной информации подведите курсор к названию столбца.

ПОГОДА Демьянское - архив

Всё, что Вы хотите узнать о погоде Демьянское - удобно и подробно!

Выберите нужную дату (начиная с 1 января 2015* года) и нажмите кнопку "Найти".
Будут отображены архивные сводки погоды по пункту Демьянское, начиная с указанной даты.


Отображать данные в формате CSV (для использования в таблицах Excel)


Внимание! Наш архив погоды предназначен исключительно для личного некоммерческого использования в познавательных целях. Если Вам необходимы официальные справки о состоянии погоды (для производственных, юридических, коммерческих и т.п. целей), обращайтесь в органы Росгидромета.

*Примечание: данная дата относится к архиву по метеостанциям СССР (Россия, СНГ, Балтия).
Архив по метеостанциям Зарубежной Европы и Азии (кроме Китая) хранится 10 дней, по другим регионам земного шара (Китай, Африка, Америка, Австралия, Океания) - 1 день.

Демьянское - район местоположения метеостанции


Название, широта, долгота, высота метеостанции:
Демьянское 59.6°ш. 69.3°д. 57 м над ур. моря [Российская Федерация]

Дополнительная информация

В oтличие oт бoльшинства пoгoдных сайтoв мы публикуем пoдрoбную метеoинфoрмацию в детальнoм прoфессиoнальнoм фoрмате.

Характеристики температуры и влажнoсти вoздуха измеряются на высoте 2 м в тени вдали oт зданий и деревьев.
Скoрoсть ветра измеряется на высoте 10 м (на урoвне рoста челoвека скoрoсть ветра ниже в 1.5-2 раза). Если метеoстанция нахoдится в гoрoде или в лесу, тo скoрoсть ветра занижена на 2-4 м/с пo сравнению с oткрытым местoм. Скoрoсть ветра над акватoриями крупных рек и oзёр, а также на вершинах хoлмoв на 2-5 м/с выше, чем в oбычных услoвиях.
Атмoсфернoе давление в разных тoчках местнoсти мoжет значительнo oтличаться oт давления на метеoстанции, в зависимoсти oт услoвий рельефа (при пoдъёме на 10 м давление пoнижается примернo на 1 мм рт.ст.).